Regional Weather Roundup
Issued by NWS San Diego, CA

Home | Current Version | Previous Version | Text Only | Print | Product List | Glossary On
Versions: 1 2 3 4 5 6 7 8 9 10 11 12 13 14 15 16 17 18 19 20 21 22 23 24 25 26 27 28 29 30 31 32 33 34 35 36 37 38 39 40 41 42 43 44 45 46 47 48 49 50
000
ASUS46 KSGX 291110
RWRSGX

SAN DIEGO HOURLY WEATHER ROUNDUP
NATIONAL WEATHER SERVICE SAN DIEGO CA
300 AM PST THU JAN 29 2015

NOTE: "FAIR" INDICATES FEW OR NO CLOUDS BELOW 12,000 FEET WITH NO
SIGNIFICANT WEATHER AND/OR OBSTRUCTIONS TO VISIBILITY.

CAZ042-043-060-061-PZZ750-775-291200-

GREATER SAN DIEGO AREA

CITY           SKY/WX    TMP DP  RH WIND       PRES   REMARKS
LINDBERGH FLD  CLOUDY    63  49  60 CALM      30.03F
IMPERIAL BEACH CLOUDY    61  49  64 NE7       30.01F
BROWN FIELD    CLOUDY    63  43  48 N3        30.01F
MIRAMAR MCAS   CLOUDY    61  46  57 E7        30.02F
MONTGOMERY FLD CLOUDY    61  49  64 NE3       30.02F

$$

NORTH SAN DIEGO COUNTY

CITY           SKY/WX    TMP DP  RH WIND       PRES   REMARKS
CAMP PENDLETON CLOUDY    58  48  69 N3        30.02F
OCEANSIDE AP   CLOUDY    57  48  72 NE6       30.01F
VISTA            N/A     59  47  66 CALM      30.02
CARLSBAD       CLOUDY    61  44  53 NE3       30.01F

$$

EAST SAN DIEGO COUNTY

CITY           SKY/WX    TMP DP  RH WIND       PRES   REMARKS
RAMONA         CLOUDY    51  46  83 E3        30.05S
LA MESA          N/A     61  47  59 E3        29.97
CAMPO            N/A     56  39  53 NE9       30.05F

$$

ORANGE COUNTY AND THE LOS ANGELES BASIN

CITY           SKY/WX    TMP DP  RH WIND       PRES   REMARKS
JOHN WAYNE AP  CLOUDY    62  52  69 CALM      30.03F
LOS ALAMITOS   MOCLDY    58  53  82 CALM      30.04S
FULLERTON      CLOUDY    61  47  59 NW3       30.03F
LONG BEACH     CLOUDY    61  50  67 CALM      30.04S
L.A. AP        CLOUDY    63  46  54 NE5       30.05S
L.A. DOWNTOWN  CLOUDY    61  46  57 CALM      30.04S

$$

THE INLAND EMPIRE

CITY           SKY/WX    TMP DP  RH WIND       PRES   REMARKS
CORONA         CLOUDY    65  42  43 SE8       30.06F
CHINO          CLOUDY    55  49  80 N3        30.06F
ONTARIO        CLOUDY    57  46  66 N5        30.05F
RIVERSIDE AP   CLOUDY    62  42  47 E5        30.06F
MARCH ARB      CLOUDY    59  41  51 N7        30.07F
FRENCH VALLEY  FAIR      55  46  71 CALM      30.07S

$$

SAN BERNARDINO AND RIVERSIDE COUNTY MOUNTAINS

CITY           SKY/WX    TMP DP  RH WIND       PRES   REMARKS
BIG BEAR AP    CLOUDY    32  30  93 CALM      30.23S

$$

SOUTHERN DESERT INCLUDING THE COACHELLA VALLEY

CITY           SKY/WX    TMP DP  RH WIND       PRES   REMARKS
PALM SPRINGS   CLOUDY    61  46  57 W5        30.10S
THERMAL        CLOUDY    58  48  69 CALM      30.05F
BLYTHE         CLOUDY    58  50  75 NW7       30.07F
IMPERIAL AP    CLOUDY    57  51  80 W5        30.05F
EL CENTRO NAS  CLOUDY    57  52  83 W6        30.05F
YUMA AZ        CLOUDY    59  49  69 CALM      30.04F

$$

UPPER DESERT

CITY           SKY/WX    TMP DP  RH WIND       PRES   REMARKS
VICTORVILLE AP CLOUDY    48  43  81 CALM      30.17F
PALMDALE       CLOUDY    48  46  93 W5        30.17F
LANCASTER      CLOUDY    49  44  83 CALM      30.17F
EDWARDS AFB    CLOUDY    49  47  95 CALM      30.15F
DAGGETT        CLOUDY    51  45  79 W6        30.16S
29 PALMS N     CLOUDY    51  45  79 W8        30.21F
NEEDLES        CLOUDY    61  45  55 N8        30.09F

$$

REGIONAL REPORTS

CITY           SKY/WX    TMP DP  RH WIND       PRES   REMARKS
SANTA BARBARA  CLOUDY    55  50  83 CALM      30.05S
SANDBERG       CLOUDY    50  37  61 E18       30.18S
MT. WILSON       N/A     46  16  29 MISG        N/A
LAS VEGAS NV   CLOUDY    55  45  68 S8        30.14R
PHOENIX AZ     CLOUDY    59  51  75 CALM      30.04F
TIJUANA        CLOUDY    63  39  42 CALM      30.04F

$$

OFFSHORE ISLANDS

CITY           SKY/WX    TMP DP  RH WIND       PRES   REMARKS
CATALINA ARPT  CLOUDY    64  41  42 NE7       30.07F
SAN NICOLAS IS CLOUDY   N/A N/A N/A W10       30.04F

$$

MARINE AND OFFSHORE BUOY REPORTS

STATION/POSITION SKY/WX   TEMP    WIND        PRES    SWELL
                          AIR SEA DIR/SP/G            HT/PER/DIR
                          (F)     (DEG/KT/KT) (MB)    (FT/S/D)
TANNER BANKS               62 62  310/  6/  8 1016.9F   5/290/14
S CLEMENTE BASIN           62 62  350/  8/ 10 1016.3F   5/290/14
SAN NICOLAS IS.               63                N/A     5/290/13
SO. S. ROSA ISLA           62 61  340/  8/  8 1016.9F   5/13
W. S. BARBARA CH           61 60  310/  6/  6 1017.3F   5/270/14
S. MONICA BASIN            64 61  340/  4/  6 1017.4F   3/260/13
S PEDRO CHANNEL               62                N/A     3/270/13
DANA POINT                    62                N/A     2/260/12
CMP PENDLETON NS              62                N/A     2/250/13
OCEANSIDE OFFSHR              62                N/A     2/260/13
TORREY PINES OTR              62                N/A     3/250/13
LA JOLLA 1                 62 62   30/  5/  6 1016.5F
MISSION BAY BUOY              62                N/A     3/260/14
SAN DIEGO BAY                 62              1016.9F
POINT LOMA SOUTH              62                N/A     3/250/14

$$



USA.gov is the U.S. government's official web portal to all federal, state and local government web resources and services.